QPF
0.01 0.00 0.00 0.00 0.00 0.00 0.00 0.00 0.00 0.00 0.00 0.00 0.00 0.00 0.00 0.00 0.00 0.00 0.00 0.00 0.00 0.00 0.00 0.00 0.00 0.00 0.00 0.00 0.00 0.00 0.00 0.00 0.00 0.00 0.00 0.00 0.00 0.00 0.00 0.00 0.00 0.00 0.00 0.00 0.00 0.00 0.00
0.00 0.00 0.00 0.00 0.00 0.00 0.00 0.00 0.00 0.00 0.00 0.00 0.00 0.00 0.00 0.00 0.00 0.00 0.00 0.00 0.00 0.00 0.00 0.00 0.00 0.00 0.00 0.00 0.00 0.00 0.00 0.00 0.00 0.00 0.00 0.00 0.00 0.00 0.00 0.00 0.00 0.00 0.00 0.00 0.00 0.00 0.00
0.00 0.00 0.00 0.00 0.00 0.00 0.00 0.00 0.00 0.00 0.00 0.00 0.00 0.00 0.00 0.00 0.00 0.00 0.00 0.00 0.00 0.00 0.00 0.00 0.00 0.00 0.00 0.00 0.00 0.00 0.00 0.00 0.00 0.00 0.00 0.00 0.00 0.00 0.00 0.00 0.00 0.00 0.00 0.00 0.00 0.00 0.00
0.00 0.00 0.00 0.00 0.00 0.00 0.00 0.00 0.00 0.00 0.00 0.00 0.00 0.00 0.00 0.00 0.00 0.00 0.00 0.00 0.00 0.00 0.00 0.00 0.00 0.00 0.00 0.00 0.00 0.00 0.00 0.00 0.00 0.00 0.00 0.00 0.00 0.00 0.00 0.00 0.00 0.00 0.00 0.00 0.00 0.00 0.00
0.00 0.00 0.00 0.00 0.00 0.00 0.00 0.00 0.00 0.00 0.00 0.00 0.00 0.00 0.00 0.00 0.00 0.00 0.00 0.00 0.00 0.00 0.00 0.00 0.00 0.00 0.00 0.00 0.00 0.00 0.00 0.00 0.00 0.00 0.00 0.00 0.00 0.00 0.00 0.00 0.00 0.00 0.00 0.00 0.00 0.00 0.00
0.00 0.00 0.00 0.00 0.00 0.00 0.00 0.00 0.00 0.00 0.00 0.00 0.00 0.00 0.00 0.00 0.00 0.00 0.00 0.00 0.00 0.00 0.00 0.00 0.00 0.00 0.00 0.00 0.00 0.00 0.00 0.00 0.00 0.00 0.00 0.00 0.00 0.00 0.00 0.00 0.00 0.00 0.00 0.00 0.00 0.00 0.00
0.00 0.00 0.00 0.00 0.00 0.00 0.00 0.00 0.00 0.00 0.00 0.00 0.00 0.00 0.00 0.00 0.00 0.00 0.00 0.00 0.00 0.00 0.00 0.00 0.00 0.00 0.00 0.00 0.00 0.00 0.00 0.00 0.00 0.00 0.00 0.00 0.00 0.00 0.00 0.00 0.00 0.00 0.00 0.00 0.00 0.00 0.00
0.00 0.00 0.00 0.00 0.00 0.00 0.00 0.00 0.00 0.00 0.00 0.00 0.00 0.00 0.00 0.00 0.00 0.00 0.00 0.00 0.00 0.00 0.00 0.00 0.00 0.00 0.00 0.00 0.00 0.00 0.00 0.00 0.00 0.00 0.00 0.00 0.00 0.00 0.00 0.00 0.00 0.00 0.00 0.00 0.00 0.00 0.00
0.00 0.00 0.00 0.00 0.00 0.00 0.00 0.00 0.00 0.00 0.00 0.00 0.00 0.00 0.00 0.00 0.00 0.00 0.00 0.00 0.00 0.00 0.00 0.00 0.00 0.00 0.00 0.00 0.00 0.00 0.00 0.00 0.00 0.00 0.00 0.00 0.00 0.00 0.00 0.00 0.00 0.00 0.00 0.00 0.00 0.00 0.00
0.00 0.00 0.00 0.00 0.00 0.00 0.00 0.00 0.00 0.00 0.00 0.00 0.00 0.00 0.00 0.00 0.00 0.00 0.00 0.00 0.00 0.00 0.00 0.00 0.00 0.00 0.00 0.00 0.00 0.00 0.00 0.00 0.00 0.00 0.00 0.00 0.00 0.00 0.00 0.00 0.00 0.00 0.00 0.00 0.00 0.00 0.00
0.00 0.00 0.00 0.00 0.00 0.00 0.00 0.00 0.00 0.00 0.00 0.00 0.00 0.00 0.00 0.00 0.00 0.00 0.00 0.00 0.00 0.00 0.00 0.00 0.00 0.00 0.00 0.00 0.00 0.00 0.00 0.00 0.00 0.00 0.00 0.00 0.00 0.00 0.00 0.00 0.00 0.00 0.00 0.00 0.00 0.00 0.00
0.00 0.00 0.00 0.00 0.00 0.00 0.00 0.00 0.00 0.00 0.00 0.00 0.00 0.00 0.00 0.00 0.00 0.00 0.00 0.00 0.00 0.00 0.00 0.00 0.00 0.00 0.00 0.00 0.00 0.00 0.00 0.00 0.00 0.00 0.00 0.00 0.00 0.00 0.00 0.00 0.00 0.00 0.00 0.00 0.00 0.00 0.00
0.00 0.00 0.00 0.00 0.00 0.00 0.00 0.00 0.00 0.00 0.00 0.00 0.00 0.00 0.00 0.00 0.00 0.00 0.00 0.00 0.00 0.00 0.00 0.00 0.00 0.00 0.00 0.00 0.00 0.00 0.00 0.00 0.00 0.00 0.00 0.00 0.00 0.00 0.00 0.00 0.00 0.00 0.00 0.00 0.00 0.00 0.00
0.00 0.00 0.00 0.00 0.00 0.00 0.00 0.00 0.00 0.00 0.00 0.00 0.00 0.00 0.00 0.00 0.00 0.00 0.00 0.00 0.00 0.00 0.00 0.00 0.00 0.00 0.00 0.00 0.00 0.00 0.00 0.00 0.00 0.00 0.00 0.00 0.00 0.00 0.00 0.00 0.00 0.00 0.00 0.00 0.00 0.00 0.00
0.00 0.00 0.00 0.00 0.00 0.00 0.00 0.00 0.00 0.00 0.00 0.00 0.00 0.00 0.00 0.00 0.00 0.00 0.00 0.00 0.00 0.00 0.00 0.00 0.00 0.00 0.00 0.00 0.00 0.00 0.00 0.00 0.00 0.00 0.00 0.00 0.00 0.00 0.00 0.00 0.00 0.00 0.00 0.00 0.00 0.00 0.00
0.00 0.00 0.00 0.00 0.00 0.00 0.00 0.00 0.00 0.00 0.00 0.00 0.00 0.00 0.00 0.00 0.00 0.00 0.00 0.00 0.00 0.00 0.00 0.00 0.00 0.00 0.00 0.00 0.00 0.00 0.00 0.00 0.00 0.00 0.00 0.00 0.00 0.00 0.00 0.00 0.00 0.00 0.00 0.00 0.00 0.00 0.00
0.00 0.00 0.00 0.00 0.00 0.00 0.00 0.00 0.00 0.00 0.00 0.00 0.00 0.00 0.00 0.00 0.00 0.00 0.00 0.00 0.00 0.00 0.00 0.00 0.00 0.00 0.00 0.00 0.00 0.00 0.00 0.00 0.00 0.00 0.00 0.00 0.00 0.00 0.00 0.00 0.00 0.00 0.00 0.00 0.00 0.00 0.00
0.00 0.00 0.00 0.00 0.00 0.00 0.00 0.00 0.00 0.00 0.01 0.00 0.00 0.00 0.00 0.00 0.00 0.00 0.00 0.00 0.00 0.00 0.00 0.00 0.00 0.00 0.00 0.00 0.00 0.00 0.01 0.01 0.00 0.00 0.00 0.00 0.00 0.00 0.00 0.00 0.00 0.00 0.00 0.00 0.00 0.00 0.00
0.00 0.00 0.00 0.00 0.00 0.00 0.00 0.00 0.00 0.00 0.01 0.00 0.00 0.00 0.00 0.00 0.00 0.00 0.00 0.00 0.00 0.00 0.00 0.00 0.00 0.00 0.00 0.00 0.00 0.00 0.00 0.00 0.00 0.00 0.00 0.00 0.00 0.00 0.00 0.00 0.00 0.00 0.00 0.00 0.00 0.00 0.00
0.00 0.00 0.00 0.01 0.00 0.00 0.00 0.00 0.00 0.00 0.01 0.00 0.00 0.00 0.00 0.00 0.00 0.00 0.00 0.00 0.00 0.00 0.00 0.00 0.00 0.00 0.01 0.01 0.00 0.00 0.00 0.00 0.00 0.00 0.00 0.00 0.01 0.00 0.00 0.00 0.00 0.00 0.00 0.00 0.00 0.00 0.00
0.00 0.00 0.00 0.01 0.00 0.00 0.00 0.00 0.00 0.00 0.01 0.00 0.00 0.00 0.00 0.00 0.00 0.00 0.00 0.00 0.00 0.00 0.00 0.00 0.00 0.00 0.00 0.00 0.00 0.00 0.00 0.00 0.00 0.00 0.00 0.00 0.00 0.00 0.00 0.00 0.00 0.00 0.00 0.00 0.00 0.00 0.00
0.00 0.00 0.01 0.01 0.00 0.00 0.00 0.00 0.00 0.00 0.01 0.00 0.00 0.00 0.00 0.00 0.00 0.00 0.00 0.00 0.00 0.00 0.00 0.00 0.00 0.00 0.00 0.00 0.00 0.00 0.00 0.00 0.00 0.00 0.00 0.00 0.00 0.00 0.00 0.00 0.00 0.00 0.00 0.00 0.00 0.00 0.00
0.01 0.01 0.01 0.01 0.00 0.00 0.00 0.01 0.00 0.00 0.01 0.00 0.00 0.00 0.00 0.00 0.00 0.00 0.00 0.00 0.00 0.00 0.00 0.00 0.00 0.00 0.00 0.00 0.00 0.00 0.00 0.00 0.00 0.00 0.00 0.00 0.00 0.00 0.00 0.00 0.00 0.00 0.00 0.00 0.00 0.00 0.00
0.01 0.01 0.01 0.01 0.01 0.01 0.01 0.01 0.00 0.00 0.01 0.02 0.01 0.00 0.01 0.00 0.00 0.00 0.00 0.00 0.00 0.00 0.00 0.00 0.00 0.00 0.00 0.00 0.00 0.00 0.00 0.00 0.00 0.00 0.00 0.00 0.00 0.00 0.00 0.00 0.00 0.00 0.00 0.00 0.00 0.00 0.00
0.00 0.01 0.01 0.01 0.01 0.01 0.01 0.01 0.00 0.00 0.00 0.01 0.01 0.02 0.01 0.00 0.00 0.00 0.00 0.00 0.00 0.00 0.00 0.00 0.00 0.00 0.00 0.00 0.00 0.00 0.00 0.00 0.00 0.00 0.00 0.00 0.00 0.01 0.01 0.00 0.00 0.00 0.00 0.00 0.00 0.00 0.00
0.01 0.01 0.01 0.01 0.01 0.02 0.02 0.02 0.02 0.01 0.01 0.02 0.01 0.02 0.02 0.01 0.00 0.00 0.00 0.00 0.00 0.00 0.00 0.00 0.00 0.00 0.00 0.00 0.00 0.00 0.00 0.00 0.00 0.00 0.00 0.00 0.00 0.00 0.01 0.00 0.00 0.00 0.00 0.00 0.00 0.00 0.00
0.01 0.01 0.01 0.02 0.03 0.04 0.04 0.04 0.03 0.02 0.01 0.05 0.02 0.02 0.02 0.01 0.00 0.00 0.00 0.00 0.00 0.00 0.00 0.00 0.00 0.00 0.00 0.00 0.00 0.00 0.00 0.00 0.00 0.00 0.00 0.00 0.00 0.00 0.00 0.00 0.00 0.00 0.00 0.00 0.00 0.00 0.00
0.01 0.02 0.02 0.02 0.03 0.05 0.05 0.05 0.04 0.03 0.02 0.05 0.01 0.01 0.02 0.01 0.00 0.00 0.00 0.00 0.00 0.00 0.00 0.00 0.00 0.00 0.00 0.00 0.00 0.00 0.00 0.00 0.00 0.00 0.00 0.00 0.00 0.00 0.00 0.00 0.00 0.00 0.00 0.00 0.00 0.00 0.00
0.01 0.02 0.03 0.03 0.02 0.03 0.04 0.04 0.04 0.03 0.02 0.05 0.02 0.00 0.03 0.02 0.00 0.00 0.00 0.00 0.00 0.00 0.00 0.00 0.00 0.00 0.00 0.00 0.00 0.00 0.00 0.00 0.00 0.00 0.00 0.00 0.00 0.00 0.00 0.00 0.00 0.00 0.00 0.00 0.00 0.00 0.00
MSLP
1023.99 1023.76 1023.52 1023.25 1022.96 1022.60 1022.27 1021.92 1021.49 1020.97 1020.29 1019.60 1019.03 1018.42 1017.84 1017.13 1016.38 1015.69 1014.96 1014.23 1013.53 1012.94 1012.60 1012.38 1012.20 1012.26 1012.45 1012.35 1010.88 1009.96 1009.84 1009.99 1010.23 1010.62 1010.95 1011.36 1011.55 1011.54 1011.59 1011.39 1011.27 1011.29 1010.67 1010.48 1010.36 1010.60 1010.95
1024.42 1024.21 1023.98 1023.58 1023.26 1022.94 1022.53 1022.12 1021.64 1021.03 1020.36 1019.74 1019.11 1018.50 1017.84 1017.12 1016.31 1015.59 1014.83 1014.08 1013.22 1012.57 1012.06 1011.86 1011.95 1012.22 1012.40 1011.94 1009.86 1009.82 1009.97 1010.19 1010.38 1010.73 1010.92 1011.14 1011.15 1011.11 1011.26 1011.18 1011.18 1010.72 1010.62 1010.57 1010.66 1010.87 1011.18
1024.77 1024.54 1024.28 1023.94 1023.54 1023.17 1022.78 1022.39 1021.86 1021.24 1020.58 1019.92 1019.24 1018.60 1017.94 1017.23 1016.41 1015.49 1014.60 1013.60 1012.64 1012.13 1011.56 1011.19 1011.51 1012.08 1012.14 1010.59 1010.04 1010.14 1010.16 1010.22 1010.34 1010.54 1010.75 1010.82 1010.90 1011.18 1011.29 1011.16 1010.82 1010.75 1010.92 1010.70 1010.67 1010.62 1011.07
1025.20 1025.02 1024.72 1024.40 1024.01 1023.57 1023.14 1022.62 1022.03 1021.36 1020.72 1020.06 1019.46 1018.64 1017.87 1017.18 1016.38 1015.29 1014.16 1013.05 1012.14 1011.45 1011.19 1011.12 1011.44 1011.91 1011.34 1010.25 1010.27 1010.28 1010.43 1010.46 1010.45 1010.47 1010.59 1010.76 1010.93 1011.25 1011.42 1011.24 1011.25 1011.39 1011.44 1011.40 1010.57 1010.89 1011.20
1025.62 1025.36 1025.00 1024.62 1024.20 1023.79 1023.37 1022.76 1022.17 1021.43 1020.70 1020.08 1019.42 1018.58 1017.77 1016.94 1016.00 1015.04 1013.78 1012.18 1011.62 1011.07 1010.87 1010.93 1011.52 1011.82 1011.01 1010.45 1010.56 1010.56 1010.57 1010.62 1010.66 1010.69 1010.73 1010.85 1011.14 1011.70 1011.76 1012.00 1012.40 1012.09 1011.77 1011.72 1011.30 1010.99 1011.36
1025.85 1025.64 1025.27 1024.77 1024.34 1023.82 1023.23 1022.72 1022.08 1021.42 1020.75 1020.14 1019.36 1018.52 1017.72 1016.89 1015.86 1014.74 1013.25 1011.47 1011.10 1011.24 1011.30 1011.22 1011.27 1012.02 1011.01 1010.83 1010.80 1010.90 1010.90 1010.86 1010.94 1011.00 1011.11 1011.30 1011.88 1012.20 1012.55 1012.84 1012.56 1012.39 1012.38 1012.04 1011.95 1011.42 1011.75
1026.12 1025.79 1025.38 1024.83 1024.44 1023.97 1023.45 1022.80 1022.08 1021.39 1020.68 1019.96 1019.19 1018.37 1017.54 1016.58 1015.46 1014.44 1012.98 1011.86 1012.12 1011.98 1011.72 1011.58 1011.52 1011.20 1010.74 1010.73 1010.78 1011.10 1011.20 1011.16 1011.11 1011.34 1011.86 1012.07 1012.53 1012.08 1011.54 1011.93 1012.12 1012.12 1012.18 1012.12 1011.50 1011.28 1011.74
1026.34 1026.12 1025.70 1025.24 1024.80 1024.19 1023.61 1022.85 1022.11 1021.43 1020.61 1019.78 1019.03 1018.28 1017.43 1016.30 1015.09 1013.99 1013.34 1013.89 1014.57 1014.68 1013.22 1011.77 1011.51 1011.44 1010.92 1010.82 1011.18 1011.37 1011.40 1011.68 1011.60 1011.76 1011.92 1012.62 1012.31 1011.61 1011.81 1012.18 1012.54 1012.63 1012.75 1012.38 1011.59 1011.49 1011.88
1026.82 1026.52 1026.11 1025.60 1025.02 1024.43 1023.73 1022.99 1022.29 1021.55 1020.73 1019.85 1019.06 1018.31 1017.34 1016.22 1015.06 1014.29 1014.54 1014.82 1014.73 1014.77 1014.27 1012.10 1011.41 1011.22 1011.24 1011.15 1011.31 1011.74 1011.91 1011.75 1011.84 1012.17 1012.40 1012.52 1011.80 1011.63 1011.94 1012.30 1012.62 1012.51 1012.90 1012.52 1012.54 1012.17 1012.05
1027.19 1026.89 1026.44 1025.95 1025.35 1024.72 1023.97 1023.14 1022.32 1021.54 1020.70 1019.80 1018.96 1018.23 1017.56 1016.36 1015.21 1015.37 1014.82 1014.71 1014.58 1014.53 1014.36 1012.35 1011.51 1011.29 1011.24 1011.06 1011.60 1011.75 1011.91 1011.98 1011.87 1012.10 1012.38 1012.64 1011.98 1011.94 1012.25 1012.49 1012.60 1012.63 1012.35 1012.64 1012.90 1013.32 1013.32
1027.42 1027.06 1026.51 1025.95 1025.48 1024.78 1024.12 1023.28 1022.39 1021.46 1020.54 1019.57 1018.82 1018.00 1017.23 1016.59 1016.53 1015.86 1015.24 1014.57 1014.41 1014.77 1014.07 1012.07 1011.53 1011.23 1011.09 1011.40 1011.70 1011.98 1011.97 1011.88 1011.99 1012.11 1012.66 1012.08 1012.14 1012.35 1012.70 1012.58 1012.65 1012.70 1012.80 1013.15 1013.50 1013.88 1014.28
1027.25 1026.66 1026.28 1025.83 1025.39 1024.81 1024.15 1023.22 1022.29 1021.35 1020.49 1019.54 1018.66 1017.78 1016.83 1016.35 1016.57 1016.01 1015.28 1014.77 1014.67 1014.79 1013.10 1012.15 1011.72 1011.50 1011.45 1011.48 1011.87 1012.11 1012.14 1012.26 1012.50 1012.67 1012.84 1012.82 1012.81 1013.02 1013.35 1013.43 1013.49 1013.54 1013.57 1013.91 1014.36 1014.78 1014.89
1027.21 1026.96 1026.51 1026.08 1025.53 1025.02 1024.40 1023.50 1022.34 1021.30 1020.49 1019.65 1018.60 1017.72 1016.95 1016.48 1016.24 1015.61 1015.22 1015.19 1015.11 1014.15 1012.96 1012.90 1012.52 1012.24 1012.02 1012.11 1012.01 1012.25 1012.51 1012.72 1013.46 1013.61 1013.51 1013.36 1013.52 1013.90 1013.97 1014.01 1014.13 1014.08 1014.33 1014.84 1015.09 1015.62 1014.48
1027.60 1027.22 1026.74 1026.24 1025.76 1025.17 1024.53 1023.73 1022.71 1021.58 1020.56 1019.58 1018.65 1017.57 1017.42 1016.58 1016.23 1015.71 1015.50 1015.26 1015.33 1014.66 1013.88 1013.67 1013.30 1012.88 1012.81 1012.91 1012.74 1012.82 1013.13 1013.74 1014.31 1014.60 1014.65 1014.73 1014.45 1014.62 1014.81 1014.93 1015.16 1015.14 1015.29 1015.75 1015.54 1015.32 1015.01
1027.60 1027.14 1026.68 1026.25 1025.69 1025.18 1024.56 1023.86 1023.02 1021.96 1020.84 1019.67 1018.60 1017.94 1017.23 1016.48 1016.18 1015.71 1016.19 1016.25 1016.27 1016.18 1015.69 1014.93 1014.34 1013.82 1013.79 1013.74 1014.05 1013.84 1014.02 1014.74 1015.64 1015.81 1016.05 1015.88 1015.26 1015.11 1015.22 1015.40 1015.72 1016.26 1016.21 1016.52 1016.50 1015.66 1015.55
1027.40 1027.10 1026.69 1026.10 1025.77 1025.16 1024.58 1024.03 1023.30 1022.28 1021.31 1020.13 1019.38 1018.93 1017.66 1016.26 1016.21 1016.25 1016.66 1016.87 1016.53 1016.72 1016.50 1015.80 1015.69 1015.40 1015.43 1015.32 1015.38 1015.12 1014.85 1015.50 1016.08 1016.44 1016.36 1016.62 1016.21 1015.52 1015.65 1015.90 1016.08 1016.03 1016.41 1016.81 1016.87 1016.17 1015.31
1027.75 1027.36 1026.83 1026.22 1025.74 1025.34 1024.72 1024.06 1023.40 1022.59 1021.73 1020.62 1020.42 1019.40 1017.04 1016.40 1016.36 1017.10 1017.81 1018.04 1017.55 1016.93 1016.75 1016.63 1016.57 1016.50 1016.50 1016.86 1016.86 1016.59 1016.05 1016.10 1016.24 1016.57 1016.71 1016.63 1016.80 1016.03 1016.03 1015.98 1015.90 1016.55 1016.64 1016.74 1016.48 1016.00 1015.41
1027.14 1026.71 1026.15 1025.77 1025.42 1025.06 1024.62 1024.11 1023.43 1022.75 1021.85 1021.43 1021.66 1020.03 1017.37 1016.58 1017.34 1018.94 1019.34 1019.18 1018.58 1017.82 1017.50 1017.30 1017.17 1017.32 1017.27 1017.46 1017.22 1017.17 1016.85 1016.64 1016.90 1017.00 1017.23 1017.19 1016.73 1016.23 1015.69 1015.98 1016.13 1016.23 1016.42 1016.46 1016.22 1015.57 1014.84
1027.04 1026.67 1026.27 1025.75 1025.38 1024.87 1024.36 1023.97 1023.62 1022.96 1022.47 1022.80 1022.64 1020.86 1017.95 1017.71 1018.75 1019.87 1019.89 1019.60 1018.93 1018.51 1018.28 1017.99 1017.85 1017.86 1018.12 1018.29 1018.24 1017.50 1017.28 1017.56 1017.16 1017.39 1017.43 1017.31 1016.94 1016.64 1016.18 1016.78 1016.74 1016.65 1016.18 1015.82 1015.65 1015.41 1014.74
1026.49 1026.07 1025.68 1025.29 1024.93 1024.55 1024.20 1023.87 1023.45 1023.09 1022.67 1023.01 1023.42 1021.76 1020.11 1019.59 1020.30 1020.51 1020.44 1019.91 1019.39 1018.92 1019.16 1019.25 1018.80 1018.50 1018.95 1018.66 1018.78 1018.45 1018.21 1017.61 1017.53 1017.55 1017.38 1017.36 1017.03 1016.81 1016.07 1016.07 1015.87 1016.32 1015.86 1015.49 1015.18 1014.92 1014.13
1026.20 1025.85 1025.28 1024.90 1024.60 1024.20 1023.87 1023.61 1023.47 1023.23 1022.90 1023.24 1023.26 1022.74 1022.15 1021.48 1021.06 1021.20 1021.11 1020.53 1019.99 1019.76 1019.70 1019.74 1019.56 1019.48 1019.98 1019.99 1019.84 1019.21 1018.62 1018.29 1017.98 1017.68 1017.64 1017.58 1016.97 1016.46 1015.83 1015.53 1015.31 1014.92 1014.73 1014.53 1014.56 1013.91 1014.11
1025.57 1025.10 1024.78 1024.43 1023.98 1023.76 1023.37 1023.10 1023.01 1022.87 1023.05 1023.40 1023.54 1023.06 1022.44 1022.01 1021.64 1021.47 1021.18 1020.66 1020.24 1020.15 1020.32 1020.09 1020.24 1020.00 1020.20 1020.74 1020.11 1019.60 1019.41 1018.91 1018.69 1018.19 1017.90 1017.64 1016.98 1016.52 1015.89 1015.28 1015.03 1014.57 1014.14 1013.92 1013.69 1013.29 1013.25
1024.92 1024.38 1023.91 1023.62 1023.25 1023.05 1022.90 1022.81 1022.65 1022.60 1022.78 1023.13 1022.81 1022.78 1022.67 1021.81 1021.55 1021.54 1021.22 1020.49 1020.19 1020.32 1019.95 1019.82 1020.07 1020.46 1020.09 1019.60 1019.24 1018.96 1018.67 1018.33 1018.11 1018.09 1017.93 1017.79 1017.39 1017.00 1015.83 1015.31 1014.99 1014.58 1013.51 1013.27 1013.16 1012.96 1012.78
1024.15 1023.81 1023.35 1022.90 1022.56 1022.26 1022.00 1021.92 1021.97 1022.07 1022.02 1022.61 1022.36 1022.46 1022.14 1021.10 1021.25 1020.92 1020.51 1020.44 1020.31 1020.37 1020.52 1019.93 1020.15 1020.48 1019.32 1019.15 1019.04 1018.39 1018.06 1017.76 1017.67 1017.19 1017.52 1017.36 1017.51 1017.28 1016.25 1015.60 1014.88 1013.29 1012.73 1012.70 1013.00 1012.93 1012.92
1023.59 1023.18 1022.65 1022.18 1021.89 1021.58 1021.23 1021.09 1021.07 1021.12 1021.21 1021.62 1021.68 1022.03 1021.56 1020.33 1020.27 1020.24 1020.20 1020.20 1020.29 1020.32 1020.62 1020.31 1019.73 1019.65 1019.60 1019.78 1019.65 1018.94 1018.12 1017.84 1017.21 1017.07 1016.99 1017.22 1017.53 1017.05 1016.74 1016.03 1014.94 1013.52 1012.80 1012.96 1012.82 1012.64 1012.81
1022.61 1022.34 1021.94 1021.41 1021.14 1020.77 1020.46 1020.33 1020.24 1020.29 1020.32 1020.63 1020.97 1021.11 1021.13 1020.22 1019.77 1019.41 1019.59 1019.90 1020.44 1020.55 1020.62 1020.09 1019.86 1019.92 1019.95 1019.85 1019.73 1019.40 1019.12 1018.51 1018.28 1017.46 1017.26 1017.41 1017.29 1017.59 1016.98 1016.35 1015.05 1013.48 1013.07 1013.05 1013.36 1013.59 1013.53
1021.97 1021.57 1021.10 1020.66 1020.35 1019.97 1019.60 1019.51 1019.46 1019.49 1019.66 1019.80 1020.13 1020.47 1020.50 1019.92 1019.36 1019.61 1019.49 1019.51 1019.71 1020.25 1020.30 1020.22 1020.27 1020.21 1020.10 1019.91 1019.69 1019.47 1019.27 1018.63 1018.88 1018.47 1017.75 1017.85 1017.68 1017.74 1017.09 1016.44 1014.90 1013.52 1013.49 1013.58 1014.13 1014.41 1014.05
1021.41 1020.90 1020.43 1020.06 1019.72 1019.34 1018.96 1018.75 1018.54 1018.60 1018.88 1018.99 1018.97 1019.22 1019.53 1019.04 1018.54 1018.69 1018.69 1018.87 1018.71 1018.92 1019.47 1019.51 1020.17 1020.36 1020.04 1019.93 1019.78 1019.36 1019.44 1018.90 1018.82 1017.76 1017.17 1017.50 1017.52 1017.38 1017.32 1016.62 1015.28 1013.86 1014.25 1014.79 1014.44 1014.22 1014.60
1020.70 1020.30 1019.67 1019.28 1018.90 1018.54 1018.17 1017.87 1017.72 1017.94 1018.18 1017.97 1018.23 1018.41 1018.60 1018.81 1018.17 1017.80 1017.73 1017.20 1017.51 1017.65 1018.25 1018.54 1018.95 1019.31 1019.27 1019.42 1019.39 1019.08 1019.04 1018.85 1018.16 1017.59 1016.67 1016.80 1016.09 1016.05 1016.34 1014.89 1014.40 1014.48 1014.58 1014.79 1014.81 1014.90 1015.29
Thickness
5636 5635 5634 5633 5633 5632 5631 5630 5631 5632 5634 5636 5637 5639 5640 5643 5647 5649 5652 5655 5657 5659 5659 5659 5657 5654 5651 5649 5653 5664 5663 5660 5657 5651 5647 5641 5637 5635 5632 5634 5637 5632 5641 5643 5644 5640 5636
5631 5629 5627 5627 5626 5625 5625 5624 5625 5626 5628 5630 5631 5633 5635 5638 5641 5643 5646 5648 5652 5654 5655 5654 5651 5647 5644 5641 5661 5657 5653 5650 5647 5643 5640 5635 5633 5632 5629 5630 5628 5634 5634 5633 5632 5630 5627
5625 5623 5622 5621 5620 5619 5618 5617 5618 5619 5621 5623 5625 5626 5628 5631 5634 5638 5640 5644 5648 5649 5651 5651 5646 5641 5638 5646 5651 5648 5645 5643 5640 5636 5633 5630 5629 5624 5623 5622 5626 5625 5622 5622 5623 5624 5619
5618 5615 5613 5612 5611 5611 5610 5611 5612 5613 5613 5615 5616 5620 5621 5623 5628 5633 5639 5643 5648 5649 5647 5645 5640 5634 5632 5645 5641 5637 5634 5631 5629 5627 5626 5622 5619 5613 5612 5614 5610 5610 5607 5608 5623 5605 5610
5609 5607 5606 5605 5605 5604 5604 5604 5606 5607 5609 5610 5612 5614 5616 5619 5624 5630 5636 5645 5645 5647 5646 5641 5634 5628 5628 5634 5630 5628 5625 5622 5618 5617 5615 5613 5609 5600 5602 5593 5582 5585 5587 5585 5601 5596 5594
5604 5601 5601 5601 5600 5599 5600 5600 5601 5603 5604 5605 5607 5609 5612 5613 5620 5626 5635 5645 5643 5639 5636 5630 5627 5620 5625 5623 5619 5615 5613 5611 5609 5607 5604 5601 5582 5579 5568 5568 5574 5574 5572 5572 5584 5591 5578
5598 5596 5596 5596 5594 5594 5594 5593 5594 5596 5598 5600 5603 5606 5608 5610 5616 5621 5630 5633 5625 5628 5626 5627 5621 5620 5621 5616 5612 5605 5601 5601 5600 5596 5585 5584 5572 5570 5584 5570 5581 5581 5573 5572 5579 5577 5569
5591 5588 5586 5584 5583 5584 5586 5587 5589 5590 5592 5594 5597 5601 5602 5604 5609 5615 5617 5606 5597 5594 5596 5607 5604 5601 5605 5607 5603 5594 5591 5589 5586 5579 5574 5565 5557 5576 5574 5563 5556 5555 5552 5553 5561 5561 5552
5580 5577 5575 5575 5575 5575 5577 5581 5582 5582 5583 5585 5587 5590 5594 5598 5601 5604 5597 5592 5586 5582 5574 5595 5601 5600 5595 5594 5590 5583 5578 5578 5577 5568 5557 5555 5576 5568 5562 5556 5549 5543 5536 5542 5547 5543 5534
5571 5568 5566 5565 5564 5565 5568 5572 5574 5575 5577 5579 5580 5582 5583 5589 5593 5585 5586 5582 5578 5574 5564 5596 5592 5590 5587 5586 5581 5571 5566 5569 5569 5567 5551 5546 5554 5558 5554 5550 5536 5533 5534 5530 5534 5526 5512
5560 5558 5558 5557 5556 5558 5561 5564 5566 5569 5570 5573 5574 5575 5574 5573 5569 5567 5571 5570 5569 5560 5563 5589 5582 5578 5577 5578 5572 5563 5557 5558 5560 5559 5550 5561 5553 5545 5539 5539 5527 5534 5516 5515 5508 5497 5480
5556 5555 5551 5549 5548 5551 5553 5557 5560 5562 5562 5562 5564 5565 5566 5563 5556 5556 5556 5556 5554 5555 5541 5571 5573 5571 5570 5562 5556 5547 5546 5542 5535 5534 5528 5525 5519 5519 5513 5497 5498 5496 5501 5486 5463 5467 5443
5546 5542 5543 5543 5542 5541 5543 5547 5550 5552 5552 5552 5552 5551 5552 5550 5547 5548 5547 5543 5536 5537 5567 5558 5556 5554 5551 5550 5551 5541 5535 5529 5522 5520 5520 5514 5505 5489 5486 5493 5481 5484 5481 5479 5477 5428 5481
5536 5534 5533 5534 5534 5535 5535 5536 5539 5540 5540 5541 5542 5543 5538 5539 5538 5538 5535 5536 5552 5549 5541 5540 5540 5536 5545 5526 5532 5526 5525 5515 5487 5491 5480 5478 5486 5475 5467 5467 5460 5459 5456 5458 5472 5454 5439
5529 5528 5529 5527 5528 5528 5526 5525 5525 5525 5528 5530 5531 5531 5531 5531 5529 5529 5519 5500 5512 5511 5510 5513 5519 5523 5525 5517 5507 5506 5505 5485 5454 5449 5461 5447 5464 5454 5450 5445 5446 5429 5426 5423 5410 5414 5423
5522 5519 5519 5519 5516 5514 5511 5509 5509 5510 5510 5513 5515 5510 5515 5524 5520 5516 5504 5514 5505 5494 5491 5498 5500 5498 5487 5485 5480 5476 5481 5461 5446 5439 5439 5431 5428 5433 5432 5426 5422 5423 5415 5417 5406 5418 5429
5507 5506 5506 5505 5503 5500 5498 5495 5493 5494 5493 5496 5492 5493 5512 5513 5510 5497 5489 5483 5486 5486 5483 5478 5476 5472 5471 5453 5451 5447 5454 5448 5433 5426 5421 5415 5408 5423 5412 5409 5408 5392 5388 5391 5392 5398 5414
5504 5503 5502 5498 5493 5488 5484 5480 5478 5477 5480 5477 5468 5481 5501 5502 5490 5462 5460 5459 5469 5469 5465 5462 5458 5450 5452 5436 5431 5437 5432 5429 5413 5407 5396 5385 5375 5384 5404 5378 5377 5364 5362 5375 5390 5371 5395
5496 5492 5488 5485 5481 5477 5473 5468 5464 5463 5460 5455 5454 5461 5487 5484 5466 5448 5449 5447 5450 5449 5447 5443 5441 5433 5430 5408 5399 5416 5412 5393 5393 5388 5376 5371 5375 5383 5385 5366 5345 5346 5359 5371 5372 5369 5383
5489 5485 5480 5474 5470 5466 5462 5457 5455 5452 5449 5442 5432 5446 5456 5456 5442 5437 5429 5431 5430 5429 5418 5411 5410 5411 5399 5399 5390 5377 5384 5386 5377 5371 5378 5365 5357 5371 5381 5375 5372 5356 5359 5355 5363 5364 5350
5477 5471 5468 5464 5460 5457 5453 5449 5442 5440 5438 5431 5424 5428 5429 5422 5426 5416 5411 5411 5410 5406 5403 5392 5386 5390 5370 5364 5350 5352 5365 5350 5355 5359 5342 5345 5341 5344 5356 5362 5364 5364 5372 5367 5355 5363 5357
5467 5463 5458 5454 5452 5447 5446 5441 5434 5430 5424 5416 5408 5410 5411 5406 5403 5400 5397 5392 5395 5390 5379 5374 5361 5366 5337 5322 5337 5339 5327 5317 5335 5315 5339 5327 5333 5332 5338 5346 5343 5346 5352 5351 5351 5357 5352
5459 5456 5452 5447 5445 5440 5434 5429 5424 5416 5409 5401 5398 5394 5392 5398 5384 5382 5377 5379 5382 5368 5371 5363 5357 5332 5333 5340 5336 5333 5333 5333 5331 5328 5325 5314 5320 5316 5323 5333 5326 5314 5323 5339 5326 5341 5348
5449 5444 5441 5438 5435 5431 5426 5418 5411 5402 5395 5386 5383 5376 5374 5383 5373 5373 5371 5368 5366 5357 5344 5351 5339 5322 5338 5329 5322 5324 5325 5323 5320 5322 5319 5315 5309 5306 5299 5309 5321 5332 5333 5335 5335 5337 5334
5439 5434 5431 5427 5421 5415 5412 5405 5398 5390 5382 5374 5368 5358 5357 5368 5362 5359 5353 5350 5338 5331 5321 5328 5329 5322 5314 5311 5310 5292 5307 5323 5326 5318 5309 5307 5298 5293 5288 5310 5308 5320 5337 5330 5334 5348 5323
5431 5424 5418 5414 5407 5401 5396 5390 5383 5374 5366 5358 5350 5341 5336 5341 5348 5346 5336 5327 5315 5296 5299 5310 5305 5299 5299 5304 5302 5288 5291 5303 5289 5304 5301 5296 5299 5298 5300 5304 5310 5314 5324 5318 5317 5310 5307
5418 5411 5406 5399 5393 5387 5381 5373 5365 5356 5346 5339 5333 5322 5314 5316 5323 5318 5316 5312 5305 5291 5299 5280 5289 5296 5289 5294 5297 5291 5281 5294 5281 5272 5286 5281 5284 5292 5276 5291 5294 5312 5311 5309 5290 5303 5299
5402 5396 5390 5381 5375 5370 5364 5357 5351 5343 5333 5326 5323 5313 5303 5302 5312 5308 5309 5304 5301 5300 5293 5284 5288 5272 5287 5281 5274 5266 5283 5280 5263 5287 5281 5280 5284 5252 5247 5244 5274 5300 5300 5296 5289 5287 5290
5385 5379 5375 5366 5361 5357 5353 5348 5344 5335 5327 5320 5314 5305 5295 5288 5298 5299 5301 5301 5298 5297 5293 5290 5290 5274 5273 5264 5257 5276 5280 5263 5272 5305 5300 5292 5304 5302 5283 5295 5296 5286 5281 5280 5277 5282 5274